TimeMST,TemperatureF,Dew PointF,Humidity,Sea Level PressureIn,VisibilityMPH,Wind Direction,Wind SpeedMPH,Gust SpeedMPH,PrecipitationIn,Events,Conditions,WindDirDegrees,DateUTC
12:53 AM,61.0,33.1,35,30.08,10.0,Calm,Calm,-,N/A,,Clear,0,2012-12-05 07:53:00
1:53 AM,59.0,33.1,38,30.07,10.0,Calm,Calm,-,N/A,,Clear,0,2012-12-05 08:53:00
2:53 AM,60.1,32.0,35,30.06,10.0,NNE,8.1,-,N/A,,Clear,30,2012-12-05 09:53:00
3:53 AM,60.1,32.0,35,30.06,10.0,NNW,6.9,-,N/A,,Clear,330,2012-12-05 10:53:00
4:53 AM,61.0,30.9,32,30.05,10.0,NE,5.8,-,N/A,,Clear,50,2012-12-05 11:53:00
5:53 AM,57.9,30.9,36,30.04,10.0,Calm,Calm,-,N/A,,Clear,0,2012-12-05 12:53:00
7:53 AM,55.9,30.9,39,30.07,10.0,Calm,Calm,-,N/A,,Clear,0,2012-12-05 14:53:00
8:53 AM,63.0,30.9,30,30.07,10.0,North,4.6,-,N/A,,Clear,10,2012-12-05 15:53:00
9:53 AM,66.9,32.0,27,30.06,10.0,Calm,Calm,-,N/A,,Clear,0,2012-12-05 16:53:00
10:53 AM,72.0,33.1,24,30.06,10.0,WSW,3.5,-,N/A,,Clear,240,2012-12-05 17:53:00
11:53 AM,73.9,33.1,22,30.03,10.0,SW,5.8,-,N/A,,Clear,220,2012-12-05 18:53:00
12:53 PM,75.9,32.0,20,29.98,10.0,SSW,3.5,-,N/A,,Clear,200,2012-12-05 19:53:00
1:53 PM,77.0,30.9,19,29.94,10.0,Variable,3.5,-,N/A,,Clear,0,2012-12-05 20:53:00
2:53 PM,78.1,32.0,19,29.92,10.0,South,4.6,-,N/A,,Clear,190,2012-12-05 21:53:00
3:53 PM,78.1,30.9,18,29.92,10.0,West,4.6,-,N/A,,Clear,260,2012-12-05 22:53:00
5:53 PM,72.0,30.9,22,29.91,10.0,Calm,Calm,-,N/A,,Clear,0,2012-12-06 00:53:00
6:53 PM,66.0,30.0,26,29.92,10.0,Calm,Calm,-,N/A,,Clear,0,2012-12-06 01:53:00
7:53 PM,62.1,30.0,30,29.92,10.0,ESE,3.5,-,N/A,,Clear,110,2012-12-06 02:53:00
8:53 PM,61.0,30.0,31,29.92,10.0,NE,4.6,-,N/A,,Clear,40,2012-12-06 03:53:00
9:53 PM,63.0,30.0,29,29.91,10.0,NNE,6.9,-,N/A,,Clear,30,2012-12-06 04:53:00
10:53 PM,57.0,28.9,34,29.91,10.0,Calm,Calm,-,N/A,,Clear,0,2012-12-06 05:53:00
11:53 PM,59.0,28.9,32,29.91,10.0,Calm,Calm,-,N/A,,Clear,0,2012-12-06 06:53:00